Precipitable_Water
1.62 1.65 1.64 1.63 1.64 1.64 1.68 1.63 1.64 1.61 1.62 1.69 1.68 1.65 1.65 1.69 1.67 1.71 1.70 1.72 1.74 1.75 1.79 1.77 1.78 1.77 1.80 1.80 1.80 1.74 1.75 1.72 1.75 1.73 1.65 1.65 1.63 1.57 1.57 1.56 1.56 1.58
1.57 1.62 1.65 1.67 1.66 1.67 1.68 1.68 1.66 1.64 1.63 1.63 1.68 1.74 1.70 1.68 1.67 1.66 1.67 1.68 1.71 1.73 1.77 1.78 1.78 1.80 1.83 1.86 1.80 1.74 1.72 1.72 1.68 1.79 1.65 1.64 1.65 1.62 1.58 1.58 1.64 1.67
1.55 1.55 1.58 1.60 1.64 1.65 1.64 1.67 1.66 1.65 1.63 1.64 1.66 1.64 1.67 1.65 1.67 1.65 1.68 1.68 1.73 1.78 1.78 1.77 1.81 1.81 1.83 1.84 1.81 1.72 1.71 1.69 1.66 1.78 1.73 1.66 1.71 1.66 1.68 1.71 1.71 1.72
1.55 1.56 1.56 1.58 1.62 1.66 1.68 1.67 1.66 1.63 1.65 1.64 1.62 1.65 1.64 1.73 1.70 1.69 1.65 1.65 1.70 1.73 1.80 1.80 1.80 1.83 1.81 1.80 1.79 1.74 1.79 1.70 1.72 1.74 1.68 1.67 1.65 1.66 1.70 1.68 1.69 1.71
1.54 1.56 1.58 1.60 1.62 1.65 1.69 1.67 1.66 1.67 1.64 1.67 1.68 1.69 1.67 1.67 1.68 1.66 1.66 1.66 1.64 1.69 1.70 1.71 1.74 1.76 1.77 1.76 1.75 1.70 1.76 1.68 1.72 1.66 1.62 1.61 1.64 1.58 1.62 1.66 1.66 1.65
1.57 1.59 1.60 1.60 1.63 1.62 1.62 1.65 1.66 1.69 1.70 1.68 1.68 1.73 1.69 1.68 1.65 1.64 1.66 1.65 1.65 1.63 1.68 1.72 1.72 1.72 1.72 1.73 1.71 1.68 1.74 1.70 1.76 1.68 1.58 1.57 1.61 1.68 1.66 1.68 1.64 1.59
1.54 1.56 1.57 1.60 1.60 1.64 1.63 1.64 1.66 1.68 1.70 1.73 1.76 1.73 1.75 1.70 1.65 1.64 1.64 1.63 1.67 1.67 1.66 1.72 1.73 1.71 1.74 1.74 1.66 1.64 1.60 1.58 1.66 1.62 1.54 1.54 1.53 1.52 1.57 1.57 1.54 1.54
1.52 1.59 1.60 1.60 1.59 1.63 1.62 1.62 1.64 1.66 1.69 1.71 1.69 1.74 1.75 1.72 1.68 1.65 1.62 1.63 1.61 1.62 1.65 1.70 1.71 1.68 1.70 1.71 1.66 1.61 1.56 1.59 1.56 1.48 1.47 1.46 1.49 1.49 1.52 1.50 1.49 1.44
1.52 1.55 1.58 1.58 1.56 1.58 1.60 1.61 1.64 1.67 1.71 1.66 1.64 1.69 1.71 1.68 1.69 1.67 1.67 1.65 1.63 1.65 1.65 1.64 1.66 1.65 1.65 1.66 1.67 1.62 1.55 1.56 1.61 1.57 1.48 1.44 1.44 1.44 1.44 1.47 1.42 1.38
1.49 1.52 1.55 1.57 1.53 1.54 1.57 1.63 1.67 1.71 1.72 1.67 1.65 1.65 1.68 1.65 1.64 1.64 1.67 1.65 1.62 1.62 1.62 1.61 1.63 1.61 1.60 1.63 1.59 1.55 1.50 1.52 1.50 1.50 1.50 1.47 1.43 1.43 1.43 1.43 1.40 1.37
1.44 1.47 1.46 1.51 1.54 1.56 1.55 1.61 1.65 1.72 1.76 1.71 1.68 1.64 1.66 1.67 1.59 1.57 1.59 1.60 1.57 1.60 1.61 1.60 1.60 1.61 1.59 1.59 1.61 1.62 1.58 1.53 1.53 1.53 1.50 1.48 1.45 1.43 1.40 1.36 1.37 1.35
1.45 1.43 1.41 1.43 1.48 1.52 1.56 1.63 1.66 1.68 1.74 1.77 1.72 1.68 1.65 1.64 1.62 1.56 1.50 1.50 1.49 1.54 1.59 1.62 1.63 1.63 1.63 1.61 1.61 1.63 1.62 1.58 1.55 1.53 1.52 1.50 1.49 1.47 1.42 1.40 1.36 1.36
1.53 1.48 1.45 1.43 1.45 1.49 1.57 1.63 1.67 1.70 1.70 1.73 1.76 1.70 1.66 1.60 1.58 1.55 1.53 1.48 1.47 1.46 1.48 1.54 1.58 1.62 1.64 1.64 1.63 1.63 1.63 1.61 1.58 1.56 1.54 1.50 1.49 1.45 1.46 1.46 1.43 1.40
1.66 1.60 1.56 1.56 1.56 1.57 1.56 1.60 1.64 1.67 1.70 1.73 1.76 1.71 1.65 1.61 1.56 1.55 1.56 1.51 1.47 1.46 1.47 1.50 1.52 1.55 1.58 1.60 1.61 1.61 1.59 1.56 1.54 1.50 1.48 1.47 1.47 1.46 1.46 1.47 1.48 1.46
1.95 1.81 1.72 1.68 1.66 1.63 1.60 1.58 1.58 1.61 1.66 1.69 1.70 1.70 1.70 1.68 1.63 1.56 1.56 1.54 1.51 1.47 1.46 1.47 1.46 1.47 1.50 1.53 1.54 1.53 1.52 1.52 1.52 1.49 1.46 1.42 1.40 1.42 1.46 1.47 1.45 1.44
2.10 2.10 1.93 1.77 1.69 1.66 1.64 1.62 1.61 1.60 1.60 1.62 1.63 1.64 1.64 1.67 1.66 1.62 1.55 1.50 1.48 1.47 1.44 1.40 1.39 1.43 1.49 1.49 1.51 1.52 1.54 1.53 1.52 1.49 1.48 1.45 1.42 1.41 1.41 1.42 1.43 1.42
2.09 2.15 2.14 1.98 1.82 1.74 1.69 1.64 1.63 1.61 1.57 1.59 1.61 1.61 1.60 1.60 1.57 1.55 1.52 1.50 1.45 1.42 1.40 1.38 1.35 1.39 1.46 1.43 1.42 1.41 1.41 1.41 1.40 1.42 1.45 1.43 1.41 1.38 1.33 1.33 1.37 1.40
2.04 2.08 2.11 2.11 2.08 1.92 1.79 1.74 1.69 1.64 1.58 1.54 1.55 1.56 1.57 1.57 1.54 1.49 1.46 1.46 1.43 1.41 1.37 1.37 1.37 1.41 1.43 1.41 1.37 1.37 1.38 1.38 1.38 1.36 1.38 1.40 1.43 1.41 1.38 1.36 1.35 1.35
2.08 2.07 2.07 2.10 2.11 2.09 2.02 1.90 1.77 1.69 1.64 1.57 1.49 1.50 1.50 1.45 1.45 1.47 1.45 1.41 1.38 1.39 1.38 1.38 1.36 1.44 1.40 1.36 1.32 1.31 1.33 1.33 1.34 1.34 1.32 1.33 1.37 1.40 1.42 1.41 1.40 1.36
2.11 2.09 2.09 2.11 2.14 2.14 2.13 2.07 1.97 1.82 1.74 1.74 1.67 1.60 1.51 1.45 1.42 1.41 1.42 1.40 1.36 1.36 1.35 1.35 1.37 1.48 1.40 1.34 1.29 1.26 1.28 1.29 1.31 1.32 1.32 1.32 1.33 1.35 1.38 1.38 1.40 1.39
2.10 2.10 2.10 2.10 2.11 2.13 2.14 2.12 2.11 2.06 1.94 1.86 1.80 1.70 1.61 1.53 1.47 1.45 1.45 1.46 1.44 1.41 1.39 1.36 1.44 1.42 1.38 1.33 1.30 1.29 1.29 1.30 1.33 1.33 1.32 1.32 1.34 1.36 1.37 1.37 1.40 1.40
2.01 2.02 2.03 2.06 2.08 2.10 2.11 2.11 2.11 2.10 2.07 2.05 1.99 1.93 1.87 1.78 1.69 1.61 1.59 1.60 1.59 1.57 1.53 1.55 1.58 1.52 1.44 1.38 1.33 1.33 1.35 1.35 1.37 1.36 1.34 1.33 1.33 1.36 1.40 1.44 1.46 1.45
1.92 1.94 1.96 1.98 2.01 2.02 2.02 2.03 2.07 2.12 2.15 2.16 2.10 2.06 2.03 1.99 1.91 1.85 1.84 1.83 1.80 1.74 1.66 1.62 1.60 1.51 1.49 1.46 1.43 1.42 1.41 1.42 1.42 1.40 1.41 1.41 1.42 1.46 1.50 1.56 1.58 1.57
1.89 1.91 1.91 1.92 1.92 1.96 1.98 2.00 2.04 2.09 2.14 2.19 2.12 2.10 2.09 2.08 2.08 2.03 2.00 1.96 1.92 1.87 1.86 1.78 1.69 1.62 1.61 1.58 1.55 1.53 1.49 1.49 1.52 1.46 1.42 1.45 1.49 1.57 1.64 1.67 1.72 1.66
1.76 1.80 1.81 1.78 1.78 1.84 1.92 1.94 1.97 2.00 2.07 2.15 2.18 2.16 2.13 2.15 2.14 2.06 2.02 1.97 1.95 1.94 1.94 1.90 1.82 1.80 1.78 1.77 1.75 1.71 1.66 1.62 1.60 1.56 1.51 1.55 1.62 1.68 1.78 1.82 1.87 1.84
1.61 1.62 1.67 1.70 1.71 1.75 1.82 1.84 1.91 1.92 1.98 2.00 2.05 2.09 2.08 2.10 2.13 2.08 1.99 1.94 1.95 1.94 1.94 2.00 1.97 1.89 1.81 1.82 1.82 1.80 1.79 1.76 1.76 1.70 1.67 1.69 1.77 1.82 1.84 1.87 1.95 1.99
Wind_Speed
14 13 12 12 12 11 11 10 10 10 9 9 8 8 8 8 8 8 7 7 7 6 6 6 5 5 5 4 4 4 4 4 4 4 4 4 4 4 4 4 4 4
14 14 13 13 12 12 12 11 10 10 10 9 9 9 8 8 8 8 8 8 7 7 6 6 6 6 5 5 4 4 4 4 4 4 4 4 4 4 4 4 4 4
15 15 14 14 13 13 12 12 11 11 10 10 10 10 9 9 9 9 9 8 8 7 7 7 6 6 6 5 5 4 4 4 4 4 4 4 4 4 4 4 4 4
16 16 15 15 14 13 13 12 12 12 11 11 10 10 10 9 9 9 9 9 9 8 8 7 7 6 6 6 5 5 4 4 5 5 5 4 4 4 4 4 4 4
17 16 16 15 15 14 14 13 13 13 12 12 11 11 11 10 10 10 10 10 9 9 8 8 7 7 7 6 6 5 5 5 5 5 5 5 4 4 4 4 4 4
17 17 17 16 15 15 15 14 14 14 13 13 12 12 11 11 11 11 11 10 10 10 9 9 8 8 7 7 6 6 6 5 5 5 5 5 5 5 5 5 5 5
18 18 18 17 17 16 16 16 15 15 14 14 13 13 12 12 12 12 12 11 11 10 10 9 9 9 8 7 7 7 6 6 6 6 5 5 5 5 5 5 5 5
18 18 18 18 18 18 17 17 16 16 15 15 14 14 13 13 13 13 13 12 12 11 11 10 10 10 9 8 8 7 7 7 7 7 6 6 6 6 6 6 6 6
18 19 19 19 19 19 18 18 18 17 17 16 16 15 15 14 14 14 14 13 13 12 12 12 11 11 10 9 9 9 8 8 8 7 7 7 7 7 6 6 6 6
19 19 19 19 20 20 19 19 19 18 18 17 17 16 16 15 15 15 15 14 14 14 13 13 12 12 11 11 10 10 10 9 9 9 9 8 8 8 8 7 7 7
20 20 20 20 20 20 20 20 20 19 19 18 18 17 17 16 16 16 16 16 15 15 15 14 14 13 13 12 12 11 11 11 10 10 10 10 10 10 9 9 9 9
21 21 21 21 21 21 21 20 20 20 20 19 19 19 18 17 17 17 17 17 17 16 16 16 15 15 14 14 13 13 12 12 11 11 11 11 11 11 11 11 10 10
21 21 21 21 21 21 21 21 21 21 21 21 20 20 19 19 18 18 18 18 18 17 17 17 16 16 16 15 15 14 13 13 13 13 12 12 12 12 12 12 12 12
21 21 22 22 22 22 22 22 22 22 21 21 21 21 21 20 20 19 19 18 18 18 18 18 18 18 17 17 16 16 15 15 14 14 14 13 13 13 13 13 13 13
22 22 22 22 22 22 22 23 23 23 22 22 22 22 22 22 21 21 20 20 19 19 19 19 19 19 19 18 18 17 16 16 15 15 15 14 14 14 14 14 14 14
24 23 22 22 22 22 23 23 23 23 23 23 23 23 23 23 23 22 22 21 21 21 20 20 20 20 20 19 19 18 18 17 17 16 16 16 16 16 15 15 15 15
26 25 24 24 23 23 24 24 24 24 24 24 24 24 24 24 24 24 24 23 23 22 22 21 21 21 21 21 20 20 19 19 18 18 18 17 17 17 17 17 16 16
28 28 28 27 26 25 25 25 25 25 25 25 25 25 25 25 25 25 25 25 24 24 23 23 22 22 22 22 22 21 21 20 20 19 19 18 18 18 18 18 17 17
27 28 28 29 28 27 27 26 26 26 26 26 26 26 26 26 26 26 26 26 26 25 25 24 24 23 23 23 23 22 22 21 21 21 20 20 20 19 19 19 19 18
26 27 28 29 29 29 28 28 28 27 27 27 27 27 27 27 27 27 27 26 26 26 26 26 25 24 24 24 24 23 23 23 23 22 22 21 21 21 21 20 20 20
24 25 26 27 28 29 29 29 29 29 29 29 28 27 27 27 27 27 27 27 27 27 26 26 26 25 25 25 24 24 24 24 24 24 23 23 23 22 22 22 22 21
21 22 23 24 25 27 28 28 29 29 29 29 29 29 29 28 28 28 28 27 27 27 27 26 25 25 25 25 25 25 25 25 25 25 25 24 24 24 23 23 22 22
18 19 20 21 22 23 24 25 26 27 27 28 29 30 29 29 29 29 28 28 28 28 28 27 26 25 26 26 26 26 26 26 26 26 25 25 25 24 24 23 23 22
14 15 16 17 18 19 20 21 22 23 24 26 27 28 28 29 29 29 28 27 27 27 27 27 27 26 26 26 26 27 27 27 26 26 26 25 25 25 24 24 23 22
13 13 13 14 15 15 16 17 18 19 20 21 23 24 25 26 28 29 28 27 26 26 25 25 25 25 25 26 26 26 27 27 27 27 26 25 25 25 24 24 23 23
13 13 13 13 13 13 13 14 15 16 17 18 19 20 21 22 23 26 28 28 27 26 24 24 23 24 24 24 25 25 26 26 26 26 26 25 25 25 24 24 23 22
Wind_Direction
202 201 200 201 202 202 201 201 201 202 203 204 203 204 203 202 202 201 202 202 202 202 203 204 205 206 208 210 212 217 224 227 227 227 227 229 228 224 223 223 227 232
205 205 205 204 205 206 205 204 205 205 206 206 206 206 204 204 205 205 205 206 205 206 206 207 209 211 214 216 217 220 226 229 231 231 230 231 230 227 226 226 227 231
208 209 209 208 208 209 208 208 209 209 209 209 209 208 206 206 208 208 209 210 210 209 210 213 214 215 219 220 221 225 229 231 233 234 232 230 230 230 232 233 232 233
212 212 212 211 211 212 211 212 212 212 212 213 212 211 209 210 211 212 213 213 213 213 214 217 217 218 220 221 224 229 232 235 235 233 232 230 228 230 234 236 236 238
215 216 215 215 215 215 214 214 215 215 216 216 216 215 215 215 216 216 216 215 216 217 218 220 220 221 222 223 226 229 232 235 235 232 231 231 230 230 233 236 237 241
217 218 218 218 218 218 218 217 218 218 218 219 219 219 219 220 220 220 219 218 219 219 220 221 222 223 224 225 227 230 231 231 231 232 232 232 233 233 235 239 241 243
219 220 220 220 220 221 221 220 221 221 221 221 221 221 222 223 223 223 222 221 221 222 222 222 224 225 225 227 230 232 233 233 234 234 235 235 236 237 239 242 244 246
221 221 222 223 222 222 223 223 223 224 224 223 223 224 224 225 226 226 225 224 223 224 225 225 227 228 228 230 233 235 236 236 237 238 238 239 239 240 242 244 246 249
224 224 224 224 224 224 224 224 225 226 226 226 226 227 227 227 228 228 227 227 227 227 228 229 230 231 232 233 235 237 238 238 240 240 240 241 242 243 245 246 250 252
226 226 226 226 226 226 226 226 226 227 228 228 229 229 229 229 229 229 230 231 231 232 233 234 234 234 235 236 238 239 240 241 241 243 244 244 245 247 248 248 251 253
229 228 228 228 228 228 228 228 228 229 229 230 230 231 231 231 231 231 232 234 235 236 237 237 237 237 238 239 240 242 243 244 244 245 245 246 248 249 250 251 252 254
231 231 230 230 230 230 230 230 230 230 231 231 232 232 233 234 233 233 234 236 237 238 239 239 239 239 240 240 241 242 244 245 246 247 247 248 249 251 252 253 254 254
232 232 232 232 232 231 232 232 232 232 232 233 233 234 234 235 235 236 236 237 238 239 240 241 241 241 241 242 242 243 244 246 247 248 249 250 251 252 253 254 255 255
233 233 234 234 234 233 233 233 234 234 234 234 234 235 235 236 237 237 238 238 239 240 241 242 242 243 243 243 243 244 245 246 247 249 250 251 253 253 254 255 256 257
234 235 235 235 235 235 235 235 235 235 236 236 236 236 236 237 238 239 239 240 240 241 242 243 243 244 244 244 244 245 246 247 249 250 251 252 253 254 255 256 257 259
236 236 236 236 236 236 237 237 237 237 237 237 237 237 237 238 239 240 240 241 242 243 243 243 244 244 244 244 245 246 247 249 250 251 253 254 254 256 257 257 258 259
238 237 237 238 238 238 238 238 239 239 239 239 239 239 239 239 240 240 241 242 243 244 244 244 245 244 243 243 245 247 248 250 251 252 254 255 255 256 257 258 259 260
240 239 239 239 240 240 240 240 240 240 240 240 240 240 240 240 241 241 242 242 243 244 244 245 246 244 242 244 245 246 248 250 251 253 254 255 256 256 257 258 259 260
241 240 239 239 241 241 241 241 241 241 241 241 242 242 241 241 241 242 242 243 243 244 244 245 246 244 243 244 245 245 247 249 250 252 253 254 255 256 257 258 259 260
240 240 239 240 241 241 242 242 242 242 242 242 243 243 243 243 242 242 242 243 244 244 244 245 245 244 244 245 246 246 247 248 250 250 252 254 255 256 257 258 259 260
240 240 240 241 241 241 242 243 244 245 243 242 243 244 243 243 244 244 244 244 244 244 244 245 245 245 246 247 247 247 248 248 249 250 252 253 254 255 257 258 259 260
240 241 242 241 241 242 242 243 245 245 244 243 244 244 244 243 244 244 244 244 243 243 243 244 245 247 247 248 248 248 248 249 250 251 252 253 254 255 257 258 259 259
239 239 240 241 241 241 242 243 244 244 243 243 243 243 243 244 243 243 243 243 244 243 243 244 245 247 249 248 249 249 250 250 251 252 253 254 255 255 256 257 258 259
238 237 238 238 239 241 241 241 242 243 242 242 242 242 243 244 244 243 242 243 244 244 244 244 245 247 249 249 249 250 251 251 251 252 253 254 255 256 256 256 257 258
235 235 236 237 238 239 240 239 240 242 242 242 242 242 243 245 245 243 241 242 244 244 244 245 246 247 249 250 251 251 251 251 251 252 253 254 255 256 256 256 256 257
234 234 236 237 238 238 239 240 242 242 242 242 241 241 244 246 245 242 240 240 241 241 241 242 245 248 249 251 252 252 252 251 251 252 253 253 255 257 259 259 259 258